Change the Weather History Date:

Friday, October 19, 2012

  Actual Average Record
Temperature  
Mean Temperature 50 °F -  
Max Temperature 55 °F 57 °F 71 °F (2000)
Min Temperature 44 °F 40 °F 27 °F (2014)
Degree Days  
Heating Degree Days 16    
Moisture  
Dew Point 38 °F    
Average Humidity 68    
Maximum Humidity 90    
Minimum Humidity 50    
Precipitation  
Precipitation 0.00 in - - ()
Sea Level Pressure  
Sea Level Pressure 29.57 in    
Wind  
Wind Speed 7 mph (SSE)    
Max Wind Speed 16 mph    
Max Gust Speed 25 mph    
Visibility 10 miles    
Events Rain    
Averages and records for this station are not official NWS values.
T = Trace of Precipitation, MM = Missing Value Source: NWS Daily Summary

Daily Weather History Graph

Daily Weather History Graph

Search for Another Location

Airport or City:

Trip Planner

Search our weather history database for the weather conditions in past years. The results will help you decide how hot, cold, wet, or windy it might be!

Date:

Astronomy

Oct. 19, 2012 Rise Set
Actual Time 7:54 AM EDT 6:46 PM EDT
Civil Twilight 7:25 AM EDT 7:15 PM EDT
Nautical Twilight 6:52 AM EDT 7:47 PM EDT
Astronomical Twilight 6:20 AM EDT 8:20 PM EDT
Moon 12:41 PM EDT (10/19) 10:19 PM EDT (10/19)
Length of Visible Light 11h 49m
Length of Day
10h 52m
Waxing Crescent, 23% of the Moon is Illuminated
Oct 19
Waxing Crescent
Oct 21
First Quarter
Oct 29
Full
Nov 6
Last Quarter
Nov 13
New

Hourly Weather History & Observations

Time (EDT) Temp. Windchill Dew Point Humidity Pressure Visibility Wind Dir Wind Speed Gust Speed Precip Events Conditions
12:14 AM 49.3 °F - 34.7 °F 57% 29.64 in 10.0 mi South 4.6 mph - N/A   Overcast
12:35 AM 49.5 °F - 34.7 °F 57% 29.64 in 10.0 mi SSE 3.5 mph - N/A   Overcast
12:55 AM 48.7 °F - 35.1 °F 59% 29.63 in 10.0 mi SE 3.5 mph - N/A   Overcast
1:15 AM 47.7 °F - 34.9 °F 61% 29.62 in 10.0 mi SE 4.6 mph - N/A   Overcast
1:35 AM 47.1 °F - 34.9 °F 62% 29.61 in 10.0 mi ESE 3.5 mph - N/A   Overcast
1:54 AM 47.7 °F - 34.9 °F 61% 29.61 in 10.0 mi Calm Calm - N/A   Mostly Cloudy
2:15 AM 46.6 °F - 35.2 °F 65% 29.61 in 10.0 mi SE 4.6 mph - N/A   Overcast
2:35 AM 44.6 °F 40.7 °F 35.4 °F 70% 29.60 in 10.0 mi SE 6.9 mph - N/A   Scattered Clouds
2:54 AM 44.8 °F 40.4 °F 35.6 °F 70% 29.60 in 10.0 mi SE 8.1 mph - N/A   Scattered Clouds
3:15 AM 44.8 °F 41.0 °F 34.9 °F 68% 29.60 in 10.0 mi SE 6.9 mph - N/A   Clear
3:35 AM 44.4 °F 40.5 °F 34.7 °F 69% 29.60 in 10.0 mi SE 6.9 mph - N/A   Clear
3:54 AM 44.6 °F 41.4 °F 35.6 °F 71% 29.59 in 10.0 mi ESE 5.8 mph - N/A   Clear
4:15 AM 45.7 °F 42.7 °F 35.2 °F 67% 29.60 in 10.0 mi SE 5.8 mph - N/A   Mostly Cloudy
4:35 AM 46.4 °F 42.9 °F 34.7 °F 64% 29.59 in 10.0 mi SE 6.9 mph - N/A   Overcast
4:54 AM 45.9 °F 42.9 °F 34.7 °F 65% 29.59 in 10.0 mi SE 5.8 mph - N/A   Overcast
5:15 AM 46.6 °F - 34.7 °F 63% 29.59 in 10.0 mi ESE 5.8 mph - N/A   Overcast
5:35 AM 46.8 °F - 34.3 °F 62% 29.58 in 10.0 mi ESE 6.9 mph - N/A   Overcast
5:55 AM 46.8 °F - 34.5 °F 62% 29.58 in 10.0 mi ESE 5.8 mph - N/A   Overcast
6:15 AM 47.3 °F - 34.2 °F 60% 29.58 in 10.0 mi ESE 9.2 mph - N/A   Overcast
6:35 AM 47.5 °F - 34.3 °F 60% 29.58 in 10.0 mi SE 9.2 mph - N/A   Overcast
6:55 AM 47.7 °F - 34.7 °F 61% 29.57 in 10.0 mi SE 9.2 mph - N/A   Overcast
7:15 AM 48.2 °F - 34.7 °F 60% 29.57 in 10.0 mi SE 9.2 mph - N/A   Overcast
7:35 AM 48.4 °F - 35.1 °F 60% 29.57 in 10.0 mi SE 8.1 mph - N/A   Overcast
7:55 AM 48.2 °F - 36.0 °F 63% 29.56 in 10.0 mi SE 8.1 mph - N/A   Overcast
8:14 AM 48.6 °F - 36.5 °F 63% 29.56 in 10.0 mi SE 6.9 mph - N/A   Overcast
8:35 AM 49.1 °F - 36.9 °F 63% 29.57 in 10.0 mi SSE 9.2 mph - N/A   Overcast
8:55 AM 49.3 °F - 37.4 °F 64% 29.57 in 10.0 mi SSE 11.5 mph 17.3 mph N/A   Overcast
9:14 AM 49.1 °F - 37.6 °F 64% 29.58 in 10.0 mi SSE 9.2 mph - N/A Rain Light Rain
9:35 AM 48.7 °F - 38.3 °F 67% 29.58 in 10.0 mi SSE 9.2 mph 16.1 mph N/A   Light Drizzle
9:55 AM 48.6 °F - 40.3 °F 73% 29.57 in 10.0 mi SSE 11.5 mph 17.3 mph N/A   Light Drizzle
10:14 AM 49.1 °F - 40.8 °F 73% 29.57 in 10.0 mi SSE 11.5 mph 16.1 mph N/A   Light Drizzle
10:35 AM 48.6 °F - 41.0 °F 75% 29.57 in 10.0 mi SSE 10.4 mph 18.4 mph N/A Rain Light Rain
10:55 AM 48.4 °F - 41.4 °F 77% 29.57 in 10.0 mi SSE 9.2 mph - N/A   Light Drizzle
11:14 AM 48.2 °F - 41.5 °F 78% 29.57 in 10.0 mi South 8.1 mph - N/A Rain Rain
11:35 AM 48.7 °F - 42.3 °F 78% 29.56 in 10.0 mi SSE 11.5 mph - N/A   Light Drizzle
11:55 AM 50.7 °F - 41.4 °F 70% 29.56 in 10.0 mi SSE 16.1 mph 19.6 mph N/A   Overcast
12:15 PM 52.0 °F - 40.3 °F 64% 29.56 in 10.0 mi SSE 15.0 mph 21.9 mph N/A   Overcast
12:35 PM 51.8 °F - 39.6 °F 63% 29.56 in 10.0 mi SSE 16.1 mph 23.0 mph N/A   Overcast
12:55 PM 51.6 °F - 39.4 °F 63% 29.56 in 10.0 mi South 15.0 mph 25.3 mph N/A Rain Light Rain
1:15 PM 51.8 °F - 39.0 °F 62% 29.55 in 10.0 mi South 15.0 mph 20.7 mph N/A   Overcast
1:35 PM 51.1 °F - 39.4 °F 64% 29.54 in 10.0 mi South 11.5 mph 17.3 mph N/A   Light Drizzle
1:54 PM 53.6 °F - 39.6 °F 59% 29.54 in 10.0 mi South 11.5 mph - N/A   Overcast
2:15 PM 54.3 °F - 39.4 °F 57% 29.53 in 10.0 mi SSW 10.4 mph - N/A   Overcast
2:34 PM 53.4 °F - 37.8 °F 55% 29.53 in 10.0 mi South 15.0 mph 19.6 mph N/A   Overcast
2:55 PM 55.6 °F - 37.4 °F 50% 29.53 in 10.0 mi South 13.8 mph 17.3 mph N/A   Overcast
3:15 PM 54.5 °F - 37.0 °F 52% 29.53 in 10.0 mi South 11.5 mph - N/A   Overcast
3:34 PM 53.6 °F - 36.9 °F 53% 29.53 in 10.0 mi SSE 12.7 mph 16.1 mph N/A   Overcast
3:55 PM 53.2 °F - 37.2 °F 55% 29.53 in 10.0 mi South 9.2 mph - N/A   Overcast
4:14 PM 53.6 °F - 37.0 °F 53% 29.53 in 10.0 mi South 9.2 mph - N/A   Overcast
4:35 PM 54.0 °F - 37.4 °F 54% 29.54 in 10.0 mi South 9.2 mph - N/A   Overcast
4:55 PM 53.8 °F - 37.4 °F 54% 29.53 in 10.0 mi South 8.1 mph - N/A   Overcast
5:14 PM 53.6 °F - 36.9 °F 53% 29.54 in 10.0 mi South 11.5 mph 17.3 mph N/A   Overcast
5:35 PM 53.2 °F - 37.6 °F 55% 29.54 in 10.0 mi South 9.2 mph - N/A   Overcast
5:55 PM 52.9 °F - 37.8 °F 56% 29.55 in 10.0 mi South 11.5 mph - N/A   Overcast
6:14 PM 52.2 °F - 37.9 °F 58% 29.55 in 10.0 mi South 10.4 mph - N/A   Overcast
6:35 PM 51.8 °F - 38.3 °F 60% 29.56 in 10.0 mi South 16.1 mph 21.9 mph N/A   Overcast
6:55 PM 50.0 °F - 40.3 °F 69% 29.57 in 10.0 mi South 11.5 mph 17.3 mph N/A   Light Drizzle
7:14 PM 48.7 °F - 41.9 °F 77% 29.57 in 10.0 mi SSE 8.1 mph - N/A   Light Drizzle
7:35 PM 48.2 °F - 41.9 °F 79% 29.58 in 10.0 mi SSE 8.1 mph - N/A   Drizzle
7:54 PM 47.5 °F - 42.1 °F 82% 29.58 in 10.0 mi SSW 8.1 mph - N/A   Drizzle
8:15 PM 46.8 °F - 41.5 °F 82% 29.57 in 10.0 mi South 8.1 mph - N/A   Drizzle
8:35 PM 46.6 °F - 42.1 °F 84% 29.57 in 10.0 mi South 4.6 mph - N/A   Light Drizzle
8:54 PM 46.4 °F 45.2 °F 42.3 °F 85% 29.57 in 10.0 mi South 3.5 mph - N/A   Drizzle
9:15 PM 46.4 °F 45.2 °F 42.8 °F 87% 29.57 in 10.0 mi SSE 3.5 mph - N/A Rain Rain
9:35 PM 46.4 °F 45.2 °F 42.8 °F 87% 29.57 in 7.0 mi SSE 3.5 mph - N/A   Drizzle
9:55 PM 46.0 °F 43.9 °F 42.8 °F 88% 29.57 in 7.0 mi SSE 4.6 mph - N/A   Drizzle
10:15 PM 45.9 °F 43.6 °F 42.8 °F 89% 29.57 in 7.0 mi SSE 4.6 mph - N/A   Drizzle
10:34 PM 45.9 °F 44.6 °F 43.0 °F 90% 29.56 in 7.0 mi SSE 3.5 mph - N/A   Drizzle
10:55 PM 45.9 °F 44.6 °F 43.2 °F 90% 29.57 in 7.0 mi SSE 3.5 mph - N/A   Drizzle
11:15 PM 45.9 °F 43.6 °F 43.2 °F 90% 29.57 in 7.0 mi South 4.6 mph - N/A Rain Light Rain
11:35 PM 45.9 °F 44.6 °F 43.2 °F 90% 29.57 in 10.0 mi South 3.5 mph - N/A   Light Drizzle
11:55 PM 45.7 °F 43.4 °F 43.0 °F 90% 29.57 in 7.0 mi SSW 4.6 mph - N/A Rain Light Rain